Weather History for KNFL - February, 2013

Change the Weather History Date:

Saturday, February 2, 2013

  Actual Average Record
Temperature  
Mean Temperature 34 °F -  
Max Temperature 46 °F 46 °F 65 °F (1953)
Min Temperature 23 °F 21 °F -15 °F (1937)
Degree Days  
Heating Degree Days 30    
Moisture  
Dew Point 26 °F    
Average Humidity 74    
Maximum Humidity 88    
Minimum Humidity 54    
Precipitation  
Precipitation 0.00 in - - ()
Sea Level Pressure  
Sea Level Pressure 30.23 in    
Wind  
Wind Speed 1 mph (ENE)    
Max Wind Speed 5 mph    
Max Gust Speed -    
Visibility 10 miles    
Events      
Averages and records for this station are not official NWS values.
T = Trace of Precipitation, MM = Missing Value Source: NWS Daily Summary

Daily Weather History Graph

Daily Weather History Graph

Search for Another Location

Airport or City:

Trip Planner

Search our weather history database for the weather conditions in past years. The results will help you decide how hot, cold, wet, or windy it might be!

Date:

Astronomy

Feb. 02, 2013 Rise Set
Actual Time 7:00 AM PST 5:16 PM PST
Civil Twilight 6:32 AM PST 5:45 PM PST
Nautical Twilight 6:00 AM PST 6:17 PM PST
Astronomical Twilight 5:29 AM PST 6:48 PM PST
Moon No Moon Rise 10:16 AM PST (2/2)
Length of Visible Light 11h 12m
Length of Day
10h 16m
Waning Gibbous, 58% of the Moon is Illuminated
Feb 2
Waning Gibbous
Feb 3
Last Quarter
Feb 9
New
Feb 17
First Quarter
Feb 25
Full

Hourly Weather History & Observations

Time (PST) Temp. Windchill Dew Point Humidity Pressure Visibility Wind Dir Wind Speed Gust Speed Precip Events Conditions
12:56 AM 27.0 °F - 23.0 °F 85% 30.23 in 10.0 mi North - - N/A   Clear
1:56 AM 27.0 °F - 23.0 °F 85% 30.25 in 10.0 mi North - - N/A   Clear
2:56 AM 26.1 °F - 21.9 °F 84% 30.25 in 10.0 mi North - - N/A   Clear
3:56 AM 24.1 °F - 19.9 °F 84% 30.24 in 10.0 mi North - - N/A   Clear
4:56 AM 23.0 °F - 19.0 °F 85% 30.24 in 10.0 mi North - - N/A   Clear
5:56 AM 23.0 °F - 19.0 °F 85% 30.24 in 10.0 mi North - - N/A   Clear
6:56 AM 25.0 °F - 19.9 °F 81% 30.25 in 10.0 mi North - - N/A   Clear
7:56 AM 26.1 °F - 21.9 °F 84% 30.26 in 9.0 mi North - - N/A   Clear
8:56 AM 30.9 °F - 26.1 °F 82% 30.27 in 10.0 mi North - - N/A   Clear
9:03 AM 32.0 °F - 26.6 °F 80% 30.41 in 10.0 mi Calm Calm - N/A   Overcast
9:56 AM 36.0 °F - 30.0 °F 79% 30.28 in 10.0 mi Calm Calm - N/A   Overcast
10:56 AM 39.9 °F - 32.0 °F 73% 30.27 in 10.0 mi Calm Calm - N/A   Overcast
11:56 AM 43.0 °F - 32.0 °F 65% 30.25 in 10.0 mi Calm Calm - N/A   Overcast
12:56 PM 46.0 °F - 30.9 °F 56% 30.22 in 10.0 mi Calm Calm - N/A   Overcast
1:56 PM 46.0 °F 44.8 °F 32.0 °F 58% 30.21 in 10.0 mi NE 3.5 mph - N/A   Overcast
2:56 PM 46.9 °F - 30.9 °F 54% 30.20 in 10.0 mi NE 4.6 mph - N/A   Overcast
3:56 PM 46.9 °F - 32.0 °F 56% 30.19 in 10.0 mi NNE 3.5 mph - N/A   Overcast
4:56 PM 45.0 °F - 30.9 °F 58% 30.19 in 10.0 mi Calm Calm - N/A   Overcast
5:56 PM 41.0 °F - 30.0 °F 65% 30.20 in 10.0 mi Calm Calm - N/A   Overcast
6:56 PM 39.0 °F 36.8 °F 30.0 °F 70% 30.19 in 10.0 mi East 3.5 mph - N/A   Clear
7:56 PM 36.0 °F 32.1 °F 28.0 °F 73% 30.20 in 10.0 mi South 4.6 mph - N/A   Clear
8:56 PM 35.1 °F - 28.0 °F 76% 30.19 in 10.0 mi Calm Calm - N/A   Clear
9:56 PM 35.1 °F - 27.0 °F 72% 30.18 in 10.0 mi Calm Calm - N/A   Clear
10:56 PM 30.0 °F - 25.0 °F 82% 30.17 in 10.0 mi Calm Calm - N/A   Clear
11:56 PM 26.1 °F 21.9 °F 23.0 °F 88% 30.17 in 9.0 mi South 3.5 mph - N/A   Clear